Location: Central Falls
(41.8900°N, 71.3929°W)
Time: 03:14:59
(UTC+00:00)

Vanguard 2 Rocket - Pass Details

Date: 06 December 2023
Orbit: 555 x 3309 km, 32.9° (Epoch: 01 March)

Event Time Altitude Azimuth Distance (km) Brightness Sun altitude
Rises 16:21:36 0° 198° (SSW) 5,398 12.0 25.5°
Reaches altitude 10° 16:25:38 10° 185° (S) 4,800 12.4 25.5°
Maximum altitude 16:36:46 26° 136° (SE) 4,440 11.3 25.6°
Drops below altitude 10° 16:50:57 10° 89° (E) 6,232 11.2 25.5°
Sets 16:57:09 0° 79° (E) 7,294 11.4 25.4°
